Weather in Carson City

United States     39°08′54″N   119°45′15″W
temp.,
°C
wind,
m/s
gust,
m/s
humid.,
%
clouds,
%
prec.,
mm/h
press.,
hPa
HPBL,
m
18 may, tue
tue1823:00+12wsw33530 0.0 101643
02:00+10wsw33443 0.0 101625
05:00+9w32435 0.0 101617
08:00+13sw22384 0.0 1016283
11:00+19wsw57220 0.0 10131786
14:00+20wsw1212200 0.0 10111734
17:00+18wsw1113240 0.0 10111405
20:00+14wsw34330 0.0 1012246
19 may, wed
wed1923:00+10w32410 0.0 101337
02:00+9wsw33440 0.0 101233
05:00+8wsw33441 0.0 101126
08:00+13sw47260 0.0 1009653
11:00+17wsw1114240 0.0 10071808
14:00+17wsw1316260 0.0 10061884
17:00+14wsw1216320 0.0 10051458
20:00+9wsw612400 0.0 10071067
20 may, thu
thu2023:00+6w24510 0.0 1007246
02:00+5wsw48320 0.0 1006316
05:00+1wnw33450 0.0 101042
08:00+4w710280 0.0 10111510
11:00+7w772370 0.0 10092823
14:00+3n346499 1.4 1013908
17:00+2nw3572100 6.1 1013761
20:00+2nw4667100 0.6 1013428
21 may, fri
fri2123:00+1nw3572100 0.8 1015320
02:00−1w228378 0.1 101525
05:00−2wnw2281100 0.1 101626
08:00+1wsw2269100 0.0 1015345
11:00+4nnw354696 0.3 10121547
14:00+8nnw563799 0.8 10102244
17:00+8nw354289 1.9 10101622
20:00+3wsw447489 1.8 1014268
22 may, sat
sat2223:00+3sw227784 2.3 1016121
02:00+2wsw228276 0.0 101629
05:00+1wsw2280100 0.0 101620
08:00+3wsw1264100 0.0 1016493
11:00+5sw2362100 0.4 10151135
14:00+5wsw1279100 2.1 1016589
17:00+5w238280 4.2 1016441
20:00+5w2373100 0.1 1016308